Frankfort, MI

8:59 AM EST on November 24, 2017 (GMT -0500)
Frankfort

Weather History for KFKS - November, 2013

Change the Weather History Date:

Sunday, November 3, 2013

  Actual Average (KMBL) Record (KMBL)
Temperature  
Mean Temperature 38 °F -  
Max Temperature 47 °F 52 °F 69 °F (1978)
Min Temperature 28 °F 37 °F 17 °F (1951)
Degree Days  
Heating Degree Days 28    
Moisture  
Dew Point 30 °F    
Average Humidity 74    
Maximum Humidity 94    
Minimum Humidity 54    
Precipitation  
Precipitation 0.00 in - - ()
Sea Level Pressure  
Sea Level Pressure 30.28 in    
Wind  
Wind Speed 4 mph (SE)    
Max Wind Speed 10 mph    
Max Gust Speed 17 mph    
Visibility 10 miles    
Events      
Averages and records for this station are not official NWS values.
T = Trace of Precipitation, MM = Missing Value Source: NWS Daily Summary

Daily Weather History Graph

Daily Weather History Graph

Search for Another Location

Airport or City:

Trip Planner

Search our weather history database for the weather conditions in past years. The results will help you decide how hot, cold, wet, or windy it might be!

Date:

Astronomy

Nov. 03, 2013 Rise Set
Actual Time 7:25 AM EST 5:30 PM EST
Civil Twilight 6:54 AM EST 6:01 PM EST
Nautical Twilight 6:20 AM EST 6:35 PM EST
Astronomical Twilight 5:46 AM EST 7:09 PM EST
Moon 7:29 AM EST (11/3) 5:43 PM EST (11/3)
Length of Visible Light 11h 06m
Length of Day
10h 05m
New Moon, 0% of the Moon is Illuminated
Nov 3
New Moon
Nov 10
First Quarter
Nov 17
Full
Nov 25
Last Quarter
Dec 2
New

Hourly Weather History & Observations

Time (EST) Temp. Windchill Dew Point Humidity Pressure Visibility Wind Dir Wind Speed Gust Speed Precip Events Conditions
12:14 AM 35.6 °F 31.7 °F 32.4 °F 88% 30.14 in 10.0 mi East 4.6 mph - N/A   Scattered Clouds
12:34 AM 35.6 °F 31.7 °F 31.6 °F 85% 30.14 in 10.0 mi East 4.6 mph - N/A   Scattered Clouds
12:54 AM 34.7 °F 30.6 °F 30.9 °F 86% 30.15 in 10.0 mi East 4.6 mph - N/A   Clear
1:15 AM 34.2 °F 31.2 °F 29.7 °F 84% 30.16 in 10.0 mi East 3.5 mph - N/A   Clear
1:35 AM 34.0 °F - 29.7 °F 84% 30.15 in 10.0 mi Calm Calm - N/A   Clear
1:55 AM 32.0 °F - 29.5 °F 90% 30.16 in 10.0 mi Calm Calm - N/A   Clear
1:15 AM 31.1 °F - 28.6 °F 90% 30.17 in 10.0 mi Calm Calm - N/A   Clear
1:35 AM 30.9 °F - 28.8 °F 92% 30.18 in 10.0 mi Calm Calm - N/A   Scattered Clouds
1:55 AM 31.1 °F - 29.5 °F 94% 30.18 in 10.0 mi Calm Calm - N/A   Mostly Cloudy
2:15 AM 31.6 °F 27.0 °F 30.2 °F 94% 30.18 in 10.0 mi ESE 4.6 mph - N/A   Overcast
2:35 AM 35.6 °F 31.7 °F 30.6 °F 82% 30.19 in 10.0 mi SE 4.6 mph - N/A   Overcast
2:55 AM 35.6 °F 31.7 °F 30.2 °F 81% 30.20 in 10.0 mi ESE 4.6 mph - N/A   Overcast
3:15 AM 35.6 °F 30.7 °F 30.6 °F 82% 30.20 in 10.0 mi ESE 5.8 mph - N/A   Overcast
3:35 AM 35.1 °F 30.1 °F 30.2 °F 82% 30.20 in 10.0 mi ESE 5.8 mph - N/A   Overcast
3:55 AM 35.1 °F 30.1 °F 30.2 °F 82% 30.21 in 10.0 mi SE 5.8 mph - N/A   Mostly Cloudy
4:16 AM 35.1 °F 30.1 °F 29.8 °F 81% 30.22 in 10.0 mi ESE 5.8 mph - N/A   Scattered Clouds
4:36 AM 34.7 °F 30.6 °F 29.3 °F 81% 30.23 in 10.0 mi East 4.6 mph - N/A   Clear
4:56 AM 33.4 °F - 28.6 °F 82% 30.24 in 10.0 mi Calm Calm - N/A   Clear
5:16 AM 33.1 °F - 28.9 °F 85% 30.24 in 10.0 mi Calm Calm - N/A   Clear
5:31 AM 30.9 °F - 28.0 °F 89% 30.24 in 10.0 mi Calm Calm - N/A   Clear
5:51 AM 30.2 °F - 27.1 °F 88% 30.25 in 10.0 mi Calm Calm - N/A   Clear
6:11 AM 32.0 °F - 27.3 °F 83% 30.25 in 10.0 mi Calm Calm - N/A   Clear
6:31 AM 29.5 °F - 26.1 °F 87% 30.26 in 10.0 mi Calm Calm - N/A   Clear
6:52 AM 28.9 °F - 25.7 °F 88% 30.27 in 10.0 mi Calm Calm - N/A   Clear
7:12 AM 30.9 °F - 27.5 °F 87% 30.27 in 10.0 mi Calm Calm - N/A   Clear
7:32 AM 30.0 °F - 27.7 °F 91% 30.28 in 10.0 mi Calm Calm - N/A   Clear
7:52 AM 32.9 °F 28.5 °F 28.9 °F 85% 30.28 in 10.0 mi SE 4.6 mph - N/A   Clear
8:12 AM 33.3 °F 27.1 °F 28.6 °F 83% 30.30 in 10.0 mi ESE 6.9 mph - N/A   Clear
8:32 AM 34.2 °F 30.0 °F 28.8 °F 81% 30.31 in 10.0 mi ESE 4.6 mph - N/A   Clear
8:52 AM 35.6 °F 32.8 °F 29.1 °F 77% 30.32 in 10.0 mi SE 3.5 mph - N/A   Clear
9:12 AM 36.9 °F 31.4 °F 28.9 °F 73% 30.32 in 10.0 mi ESE 6.9 mph - N/A   Clear
9:32 AM 37.8 °F 31.8 °F 29.3 °F 72% 30.33 in 10.0 mi ESE 8.1 mph - N/A   Clear
9:52 AM 38.8 °F 35.4 °F 30.2 °F 71% 30.33 in 10.0 mi SE 4.6 mph - N/A   Clear
10:12 AM 39.9 °F 34.5 °F 30.7 °F 70% 30.33 in 10.0 mi SE 8.1 mph - N/A   Clear
10:32 AM 40.3 °F 35.5 °F 30.6 °F 68% 30.33 in 10.0 mi SSE 6.9 mph - N/A   Clear
10:53 AM 41.2 °F 35.5 °F 30.6 °F 66% 30.33 in 10.0 mi SE 9.2 mph - N/A   Clear
11:13 AM 41.7 °F 36.1 °F 30.9 °F 66% 30.33 in 10.0 mi SSE 9.2 mph - N/A   Clear
11:33 AM 42.6 °F 39.0 °F 30.9 °F 63% 30.33 in 10.0 mi SSE 5.8 mph - N/A   Clear
11:53 AM 43.5 °F 38.3 °F 31.1 °F 62% 30.33 in 10.0 mi ESE 9.2 mph - N/A   Clear
12:13 PM 44.6 °F 42.2 °F 31.6 °F 60% 30.33 in 10.0 mi SSE 4.6 mph - N/A   Clear
12:33 PM 44.6 °F 41.4 °F 31.3 °F 60% 30.33 in 10.0 mi SSE 5.8 mph - N/A   Clear
12:53 PM 45.3 °F 41.6 °F 31.1 °F 58% 30.32 in 10.0 mi SE 6.9 mph - N/A   Clear
1:13 PM 46.2 °F 44.1 °F 31.6 °F 57% 30.31 in 10.0 mi SE 4.6 mph - N/A   Clear
1:34 PM 46.2 °F - 31.6 °F 57% 30.31 in 10.0 mi Calm Calm - N/A   Scattered Clouds
1:54 PM 47.1 °F - 32.0 °F 56% 30.30 in 10.0 mi South 4.6 mph - N/A   Scattered Clouds
2:14 PM 45.7 °F 42.7 °F 30.9 °F 56% 30.31 in 10.0 mi South 5.8 mph - N/A   Scattered Clouds
2:34 PM 47.5 °F - 31.6 °F 54% 30.31 in 10.0 mi South 6.9 mph - N/A   Scattered Clouds
2:54 PM 46.6 °F - 31.5 °F 56% 30.30 in 10.0 mi SSE 5.8 mph - N/A   Scattered Clouds
3:14 PM 46.8 °F - 31.5 °F 55% 30.31 in 10.0 mi South 4.6 mph - N/A   Clear
3:34 PM 47.3 °F - 31.8 °F 55% 30.30 in 10.0 mi South 8.1 mph - N/A   Mostly Cloudy
3:54 PM 46.2 °F 43.3 °F 32.0 °F 58% 30.30 in 10.0 mi South 5.8 mph - N/A   Scattered Clouds
4:15 PM 45.9 °F 44.6 °F 31.8 °F 58% 30.31 in 10.0 mi South 3.5 mph - N/A   Scattered Clouds
4:35 PM 45.7 °F 41.5 °F 31.8 °F 58% 30.31 in 10.0 mi South 8.1 mph - N/A   Mostly Cloudy
4:55 PM 45.1 °F 40.3 °F 32.0 °F 60% 30.31 in 10.0 mi SSE 9.2 mph - N/A   Scattered Clouds
5:15 PM 43.9 °F 40.5 °F 32.0 °F 63% 30.31 in 10.0 mi SE 5.8 mph - N/A   Clear
5:35 PM 43.0 °F 39.5 °F 32.0 °F 65% 30.32 in 10.0 mi SE 5.8 mph - N/A   Clear
5:55 PM 42.1 °F 40.2 °F 31.6 °F 67% 30.32 in 10.0 mi ESE 3.5 mph - N/A   Scattered Clouds
6:15 PM 41.5 °F 39.6 °F 31.3 °F 67% 30.32 in 10.0 mi SE 3.5 mph - N/A   Scattered Clouds
6:35 PM 40.1 °F - 31.3 °F 71% 30.32 in 10.0 mi Calm Calm - N/A   Clear
6:55 PM 39.0 °F - 30.9 °F 73% 30.32 in 10.0 mi Calm Calm - N/A   Clear
7:15 PM 37.8 °F - 31.1 °F 77% 30.32 in 10.0 mi Calm Calm - N/A   Clear
7:35 PM 39.7 °F 34.9 °F 31.1 °F 71% 30.32 in 10.0 mi SE 6.9 mph - N/A   Clear
7:55 PM 40.1 °F 36.1 °F 31.1 °F 70% 30.32 in 10.0 mi SE 5.8 mph - N/A   Clear
8:16 PM 39.7 °F 35.6 °F 31.1 °F 71% 30.32 in 10.0 mi SE 5.8 mph - N/A   Clear
8:36 PM 39.7 °F 33.7 °F 31.1 °F 71% 30.32 in 10.0 mi SE 9.2 mph - N/A   Clear
8:56 PM 39.9 °F 33.9 °F 31.1 °F 71% 30.32 in 10.0 mi SE 9.2 mph - N/A   Clear
9:16 PM 39.6 °F 34.0 °F 31.1 °F 72% 30.33 in 10.0 mi SE 8.1 mph - N/A   Scattered Clouds
9:31 PM 39.4 °F 33.2 °F 31.1 °F 72% 30.33 in 10.0 mi SE 9.2 mph - N/A   Scattered Clouds
9:51 PM 39.2 °F 33.6 °F 31.1 °F 73% 30.33 in 10.0 mi SE 8.1 mph - N/A   Clear
10:11 PM 39.2 °F 33.0 °F 31.1 °F 73% 30.33 in 10.0 mi SE 9.2 mph - N/A   Clear
10:31 PM 39.2 °F 33.0 °F 31.1 °F 73% 30.33 in 10.0 mi SE 9.2 mph - N/A   Clear
10:52 PM 39.4 °F 32.7 °F 30.9 °F 72% 30.34 in 10.0 mi SE 10.4 mph 17.3 mph N/A   Clear